contact:dominique.lefevre@mio.osupytheas.fr, maurice.libes@osupytheas.fr, didier.mallarino@osupytheas.fr
Project:EMSO http://www.emso-fr.org/EMSO-France
Depth: 2436.0 m
Title:EMSO Ligure Ouest : Data MII capteur AQUADOPP
Date,Latitude,Longitude,X_East,Y_North,Z_Up,Amplitude_X,Amplitude_Y,Amplitude_Z,Batterie,SoundSpeed,Heading,Pitch,Roll,Pressure,TIS,Speed,Direction
, degrees North, degrees East, m.s-1, m.s-1,m.s-1, 1, 1, 1, Volt, m.s-1, degree, degree, degree, dbar, degree_C, m.s-1, degree
2020-04-24T00:04:03,42.805,6.029,-0.007,0.0,-0.081,101.0,109.0,100.0,13.3,1505.3,326.6,-0.8,1.9,2470.316,13.31,0.007,270.0
2020-04-24T00:07:03,42.805,6.029,0.017,0.007,-0.016,101.0,111.0,101.0,13.3,1505.3,325.8,-0.7,1.8,2470.349,13.32,0.018,67.6
2020-04-24T00:10:03,42.805,6.029,-0.001,0.001,-0.062,102.0,111.0,101.0,13.3,1505.3,325.8,-0.7,1.8,2470.336,13.32,0.001,315.0
2020-04-24T00:13:03,42.805,6.029,0.004,0.012,-0.015,102.0,110.0,100.0,13.4,1505.3,326.7,-0.7,1.8,2470.299,13.33,0.012,18.4
2020-04-24T00:16:03,42.805,6.029,0.005,0.002,-0.048,101.0,109.0,100.0,13.4,1505.3,325.9,-0.7,1.8,2470.363,13.33,0.005,68.2
2020-04-24T00:19:03,42.805,6.029,0.015,0.012,-0.012,101.0,110.0,100.0,13.4,1505.3,324.3,-0.7,1.8,2470.33,13.33,0.019,51.3
2020-04-24T00:22:03,42.805,6.029,-0.002,0.01,-0.014,103.0,110.0,101.0,13.4,1505.3,325.4,-0.8,1.8,2470.289,13.33,0.01,348.7
2020-04-24T00:25:03,42.805,6.029,-0.013,0.015,-0.034,102.0,109.0,101.0,13.4,1505.3,325.9,-0.7,1.8,2470.294,13.33,0.019,319.1
2020-04-24T00:28:03,42.805,6.029,0.013,-0.004,0.006,103.0,110.0,101.0,13.4,1505.3,328.0,-0.7,1.8,2470.282,13.33,0.013,107.1
2020-04-24T00:31:03,42.805,6.029,0.046,-0.009,-0.015,102.0,108.0,99.0,13.3,1505.3,326.8,-0.7,1.8,2470.306,13.33,0.046,101.1
2020-04-24T00:34:03,42.805,6.029,-0.022,0.019,-0.028,102.0,108.0,101.0,13.3,1505.3,323.0,-0.7,1.8,2470.3,13.33,0.029,310.8
2020-04-24T00:37:03,42.805,6.029,0.029,0.006,-0.023,102.0,110.0,100.0,13.3,1505.3,323.5,-0.7,1.8,2470.295,13.33,0.029,78.3
2020-04-24T00:40:03,42.805,6.029,0.022,0.009,-0.036,101.0,110.0,100.0,13.4,1505.3,326.3,-0.7,1.8,2470.303,13.33,0.023,67.8
2020-04-24T00:43:03,42.805,6.029,0.009,0.007,-0.039,102.0,111.0,100.0,13.3,1505.3,326.4,-0.7,1.8,2470.308,13.33,0.011,52.1
2020-04-24T00:46:03,42.805,6.029,0.004,0.018,-0.021,102.0,109.0,100.0,13.4,1505.3,326.9,-0.7,1.8,2470.297,13.33,0.018,12.5
2020-04-24T00:49:03,42.805,6.029,0.007,0.016,-0.005,101.0,110.0,100.0,13.3,1505.3,323.7,-0.7,1.8,2470.281,13.33,0.017,23.6
2020-04-24T00:52:03,42.805,6.029,-0.011,0.009,-0.026,102.0,109.0,100.0,13.3,1505.3,326.1,-0.7,1.8,2470.263,13.33,0.014,309.3
2020-04-24T00:55:03,42.805,6.029,-0.009,0.006,-0.038,102.0,112.0,101.0,13.4,1505.3,324.6,-0.7,1.8,2470.282,13.33,0.01,303.7
2020-04-24T00:58:03,42.805,6.029,0.013,0.009,0.005,101.0,110.0,100.0,13.3,1505.3,327.1,-0.7,1.8,2470.297,13.33,0.015,55.3
2020-04-24T01:04:03,42.805,6.029,0.002,0.013,-0.011,103.0,112.0,101.0,13.4,1505.3,324.6,-0.8,1.8,2470.34,13.31,0.013,8.7
2020-04-24T01:07:03,42.805,6.029,0.017,0.009,0.001,103.0,111.0,101.0,13.4,1505.3,322.5,-0.8,1.8,2470.306,13.32,0.019,62.1
2020-04-24T01:10:03,42.805,6.029,0.006,0.019,-0.044,103.0,111.0,102.0,13.4,1505.3,323.8,-0.7,1.9,2470.295,13.32,0.019,17.5
2020-04-24T01:13:03,42.805,6.029,-0.028,0.012,-0.047,103.0,111.0,100.0,13.4,1505.3,326.2,-0.7,1.8,2470.295,13.32,0.03,293.2
2020-04-24T01:16:03,42.805,6.029,0.0,0.016,-0.028,104.0,111.0,100.0,13.4,1505.3,328.9,-0.7,1.8,2470.286,13.32,0.016,0.0
2020-04-24T01:19:03,42.805,6.029,0.009,0.02,0.002,102.0,111.0,100.0,13.4,1505.3,324.5,-0.7,1.8,2470.289,13.33,0.021,24.2
2020-04-24T01:22:03,42.805,6.029,0.0,0.019,-0.023,102.0,112.0,100.0,13.3,1505.3,326.5,-0.7,1.8,2470.274,13.33,0.019,0.0
2020-04-24T01:25:03,42.805,6.029,0.004,0.021,-0.008,103.0,111.0,101.0,13.3,1505.3,326.9,-0.7,1.8,2470.256,13.33,0.021,10.8
2020-04-24T01:28:03,42.805,6.029,0.025,0.0,-0.015,102.0,111.0,101.0,13.3,1505.3,325.9,-0.7,1.8,2470.278,13.33,0.025,90.0
2020-04-24T01:31:03,42.805,6.029,-0.002,0.018,-0.012,103.0,112.0,101.0,13.4,1505.3,326.4,-0.7,1.8,2470.281,13.33,0.018,353.7
2020-04-24T01:37:03,42.805,6.029,0.014,0.031,-0.007,103.0,112.0,102.0,13.4,1505.3,326.6,-0.7,1.8,2470.323,13.31,0.034,24.3
2020-04-24T01:40:03,42.805,6.029,0.006,0.027,-0.025,104.0,112.0,100.0,13.4,1505.3,325.3,-0.7,1.8,2470.315,13.31,0.027,12.5
2020-04-24T01:43:03,42.805,6.029,0.002,0.014,-0.039,103.0,110.0,101.0,13.3,1505.3,328.2,-0.7,1.8,2470.271,13.32,0.014,8.1
2020-04-24T01:46:03,42.805,6.029,0.0,0.033,0.012,104.0,111.0,100.0,13.4,1505.3,324.8,-0.7,1.8,2470.256,13.32,0.033,0.0
2020-04-24T01:49:03,42.805,6.029,0.001,0.029,-0.008,102.0,112.0,102.0,13.4,1505.3,324.2,-0.7,1.8,2470.313,13.32,0.029,2.0
2020-04-24T01:52:03,42.805,6.029,0.012,0.01,-0.019,103.0,111.0,101.0,13.4,1505.3,324.1,-0.7,1.9,2470.279,13.32,0.015,50.2
2020-04-24T01:55:03,42.805,6.029,-0.002,-0.016,-0.033,105.0,112.0,102.0,13.4,1505.3,325.4,-0.7,1.8,2470.281,13.32,0.016,187.1
2020-04-24T01:58:03,42.805,6.029,-0.017,0.021,-0.048,104.0,112.0,102.0,13.4,1505.3,327.8,-0.7,1.8,2470.28,13.33,0.027,321.0
2020-04-24T02:04:03,42.805,6.029,-0.019,0.028,-0.005,103.0,112.0,103.0,13.4,1505.3,325.3,-0.7,1.8,2470.308,13.31,0.033,325.8
2020-04-24T02:07:03,42.805,6.029,-0.004,0.004,-0.011,105.0,111.0,101.0,13.3,1505.3,327.1,-0.7,1.9,2470.299,13.31,0.005,315.0
2020-04-24T02:10:03,42.805,6.029,0.02,0.01,-0.023,105.0,111.0,101.0,13.3,1505.3,325.1,-0.7,1.8,2470.3,13.32,0.022,63.4
2020-04-24T02:13:03,42.805,6.029,0.024,0.001,-0.013,103.0,111.0,102.0,13.4,1505.3,326.7,-0.7,1.8,2470.297,13.32,0.024,87.6
2020-04-24T02:16:03,42.805,6.029,0.015,-0.003,-0.008,103.0,111.0,101.0,13.4,1505.3,328.5,-0.7,1.8,2470.291,13.32,0.015,101.3
2020-04-24T02:19:03,42.805,6.029,0.006,-0.005,-0.038,102.0,113.0,100.0,13.4,1505.3,325.3,-0.7,1.8,2470.325,13.32,0.007,129.8
2020-04-24T02:22:03,42.805,6.029,0.015,0.0,-0.032,102.0,112.0,101.0,13.4,1505.3,326.4,-0.7,1.8,2470.306,13.32,0.015,90.0
2020-04-24T02:25:03,42.805,6.029,-0.003,0.012,0.004,103.0,112.0,101.0,13.3,1505.3,324.0,-0.7,1.8,2470.228,13.32,0.012,346.0
2020-04-24T02:28:03,42.805,6.029,0.007,0.011,-0.023,103.0,110.0,101.0,13.4,1505.3,324.8,-0.7,1.8,2470.286,13.33,0.013,32.5
2020-04-24T02:31:03,42.805,6.029,0.014,0.005,-0.035,102.0,112.0,102.0,13.4,1505.3,326.5,-0.7,1.8,2470.258,13.33,0.014,70.4
2020-04-24T02:34:03,42.805,6.029,-0.018,0.002,-0.056,103.0,108.0,102.0,13.3,1505.3,324.8,-0.7,1.8,2470.274,13.33,0.018,276.3
2020-04-24T02:37:03,42.805,6.029,0.012,0.022,-0.054,101.0,109.0,101.0,13.4,1505.3,327.5,-0.7,1.8,2470.268,13.33,0.025,28.6
2020-04-24T02:40:03,42.805,6.029,0.003,0.007,-0.028,104.0,110.0,100.0,13.4,1505.3,325.2,-0.7,1.8,2470.249,13.33,0.007,23.2
2020-04-24T02:43:03,42.805,6.029,0.027,0.022,-0.023,102.0,109.0,101.0,13.4,1505.3,325.2,-0.7,1.8,2470.286,13.33,0.034,50.8
2020-04-24T02:46:03,42.805,6.029,-0.002,0.016,-0.01,103.0,110.0,100.0,13.3,1505.3,324.6,-0.7,1.8,2470.277,13.33,0.016,352.9
2020-04-24T02:49:03,42.805,6.029,0.039,0.001,-0.032,101.0,109.0,100.0,13.4,1505.3,323.7,-0.7,1.8,2470.238,13.33,0.039,88.5
2020-04-24T02:52:03,42.805,6.029,0.013,0.005,-0.051,102.0,109.0,99.0,13.4,1505.3,327.8,-0.7,1.8,2470.289,13.33,0.013,69.0
2020-04-24T02:55:03,42.805,6.029,-0.006,0.013,-0.016,101.0,109.0,99.0,13.4,1505.3,326.9,-0.7,1.8,2470.283,13.33,0.014,335.2
2020-04-24T02:58:03,42.805,6.029,-0.003,-0.004,-0.038,103.0,108.0,99.0,13.4,1505.3,327.8,-0.7,1.8,2470.259,13.33,0.005,216.9
2020-04-24T03:04:03,42.805,6.029,0.005,0.01,-0.004,103.0,107.0,101.0,13.4,1505.3,325.1,-0.8,1.8,2470.283,13.31,0.011,26.6
2020-04-24T03:07:03,42.805,6.029,-0.006,-0.001,-0.067,102.0,110.0,100.0,13.3,1505.3,326.0,-0.7,1.8,2470.31,13.31,0.006,260.5
2020-04-24T03:10:03,42.805,6.029,0.013,0.014,0.0,102.0,109.0,102.0,13.4,1505.3,324.5,-0.7,1.8,2470.278,13.32,0.019,42.9
2020-04-24T03:13:03,42.805,6.029,-0.009,0.003,-0.048,102.0,109.0,101.0,13.4,1505.3,326.3,-0.7,1.8,2470.307,13.32,0.009,288.4
2020-04-24T03:16:03,42.805,6.029,-0.024,0.002,-0.068,102.0,110.0,100.0,13.3,1505.3,323.7,-0.7,1.9,2470.302,13.32,0.024,274.8
2020-04-24T03:19:03,42.805,6.029,0.014,0.012,-0.013,101.0,108.0,101.0,13.4,1505.3,325.5,-0.7,1.8,2470.242,13.32,0.018,49.4
2020-04-24T03:22:03,42.805,6.029,-0.007,0.022,-0.068,104.0,108.0,101.0,13.4,1505.3,325.7,-0.7,1.8,2470.274,13.33,0.023,342.4
2020-04-24T03:25:03,42.805,6.029,0.002,0.005,-0.047,102.0,109.0,100.0,13.4,1505.3,326.4,-0.8,1.8,2470.284,13.33,0.005,21.8
2020-04-24T03:28:03,42.805,6.029,0.0,0.015,-0.065,103.0,108.0,99.0,13.4,1505.3,324.8,-0.7,1.8,2470.222,13.33,0.015,0.0
2020-04-24T03:31:03,42.805,6.029,-0.019,0.013,-0.073,103.0,109.0,100.0,13.4,1505.3,326.9,-0.8,1.8,2470.253,13.33,0.023,304.4
2020-04-24T03:34:03,42.805,6.029,0.006,0.003,-0.035,103.0,109.0,101.0,13.4,1505.3,327.1,-0.7,1.9,2470.261,13.33,0.006,63.4
2020-04-24T03:37:03,42.805,6.029,0.0,0.009,-0.042,103.0,109.0,100.0,13.3,1505.3,323.8,-0.7,1.8,2470.296,13.33,0.009,0.0
2020-04-24T03:40:03,42.805,6.029,-0.014,0.014,-0.045,101.0,109.0,100.0,13.3,1505.3,324.9,-0.7,1.8,2470.248,13.33,0.019,315.0
2020-04-24T03:43:03,42.805,6.029,-0.009,0.008,-0.036,103.0,110.0,99.0,13.4,1505.3,326.5,-0.7,1.8,2470.272,13.33,0.012,311.6
2020-04-24T03:46:03,42.805,6.029,0.006,-0.01,-0.065,101.0,110.0,102.0,13.4,1505.3,326.8,-0.7,1.8,2470.285,13.33,0.011,149.0
2020-04-24T03:49:03,42.805,6.029,0.022,0.021,-0.012,101.0,109.0,100.0,13.3,1505.3,326.5,-0.7,1.9,2470.282,13.33,0.03,46.3
2020-04-24T03:52:03,42.805,6.029,-0.002,0.016,-0.017,103.0,110.0,100.0,13.3,1505.3,323.3,-0.7,1.8,2470.254,13.33,0.016,352.9
2020-04-24T03:55:03,42.805,6.029,-0.016,0.012,-0.059,104.0,111.0,100.0,13.3,1505.3,328.1,-0.7,1.8,2470.256,13.33,0.02,306.9
2020-04-24T03:58:03,42.805,6.029,0.0,0.018,-0.04,101.0,111.0,101.0,13.4,1505.3,326.2,-0.7,1.8,2470.27,13.33,0.018,0.0
2020-04-24T04:04:03,42.805,6.029,-0.002,0.029,-0.031,103.0,109.0,101.0,13.4,1505.3,324.1,-0.8,1.8,2470.308,13.31,0.029,356.1
2020-04-24T04:07:03,42.805,6.029,-0.018,0.009,-0.091,102.0,110.0,99.0,13.4,1505.3,325.5,-0.7,1.8,2470.325,13.31,0.02,296.6
2020-04-24T04:10:03,42.805,6.029,0.003,0.021,-0.025,102.0,110.0,100.0,13.3,1505.3,325.8,-0.7,1.8,2470.287,13.32,0.021,8.1
2020-04-24T04:13:03,42.805,6.029,0.018,0.008,-0.012,101.0,111.0,100.0,13.4,1505.3,325.1,-0.7,1.8,2470.307,13.32,0.019,66.0
2020-04-24T04:16:03,42.805,6.029,-0.001,0.019,0.001,102.0,111.0,100.0,13.3,1505.3,324.2,-0.7,1.8,2470.327,13.33,0.019,357.0
2020-04-24T04:19:03,42.805,6.029,-0.013,0.028,-0.029,103.0,111.0,99.0,13.4,1505.3,323.2,-0.7,1.8,2470.338,13.33,0.03,335.1
2020-04-24T04:22:03,42.805,6.029,-0.01,0.005,-0.056,103.0,107.0,100.0,13.4,1505.3,326.2,-0.7,1.8,2470.297,13.33,0.011,296.6
2020-04-24T04:25:03,42.805,6.029,-0.006,0.012,-0.009,103.0,109.0,100.0,13.4,1505.3,323.8,-0.7,1.9,2470.296,13.33,0.013,333.4
2020-04-24T04:28:03,42.805,6.029,0.027,0.018,-0.016,102.0,111.0,100.0,13.4,1505.3,325.5,-0.7,1.9,2470.274,13.33,0.032,56.3
2020-04-24T04:31:03,42.805,6.029,-0.025,0.019,-0.063,104.0,108.0,100.0,13.3,1505.3,325.9,-0.7,1.9,2470.293,13.33,0.031,307.2
2020-04-24T04:34:03,42.805,6.029,0.007,0.012,0.0,102.0,109.0,101.0,13.3,1505.3,323.3,-0.7,1.8,2470.313,13.33,0.013,30.3
2020-04-24T04:37:03,42.805,6.029,-0.035,0.0,-0.044,102.0,110.0,102.0,13.3,1505.3,328.4,-0.7,1.9,2470.306,13.33,0.035,270.0
2020-04-24T04:40:03,42.805,6.029,0.012,0.0,-0.051,103.0,111.0,100.0,13.3,1505.3,324.9,-0.7,1.9,2470.306,13.33,0.012,90.0
2020-04-24T04:43:03,42.805,6.029,0.001,0.016,-0.051,103.0,110.0,100.0,13.4,1505.3,323.3,-0.7,1.8,2470.33,13.33,0.016,3.6
2020-04-24T04:46:03,42.805,6.029,0.01,0.009,-0.004,104.0,109.0,100.0,13.4,1505.3,324.3,-0.7,1.8,2470.312,13.33,0.013,48.0
2020-04-24T04:49:03,42.805,6.029,0.019,0.018,-0.01,102.0,111.0,101.0,13.4,1505.3,327.2,-0.7,1.8,2470.273,13.33,0.026,46.5
2020-04-24T04:52:03,42.805,6.029,0.002,0.005,-0.027,103.0,109.0,101.0,13.3,1505.3,323.3,-0.7,1.8,2470.287,13.33,0.005,21.8
2020-04-24T04:55:03,42.805,6.029,0.046,0.016,-0.021,103.0,108.0,102.0,13.4,1505.3,325.0,-0.7,1.8,2470.275,13.33,0.048,70.8
2020-04-24T04:58:03,42.805,6.029,0.027,0.025,-0.001,103.0,109.0,101.0,13.4,1505.3,326.3,-0.7,1.8,2470.307,13.33,0.036,47.2
2020-04-24T05:04:03,42.805,6.029,0.011,0.011,-0.021,103.0,108.0,100.0,13.3,1505.3,324.7,-0.7,1.9,2470.402,13.31,0.015,45.0
2020-04-24T05:07:03,42.805,6.029,-0.001,0.024,-0.032,103.0,109.0,100.0,13.4,1505.3,323.0,-0.7,1.9,2470.351,13.32,0.024,357.6
2020-04-24T05:10:03,42.805,6.029,0.042,0.01,-0.014,104.0,110.0,101.0,13.4,1505.3,326.6,-0.7,1.8,2470.364,13.32,0.043,76.6
2020-04-24T05:16:03,42.805,6.029,0.004,0.005,-0.044,102.0,110.0,100.0,13.4,1505.3,323.0,-0.7,1.8,2470.424,13.31,0.006,38.7
2020-04-24T05:19:03,42.805,6.029,0.043,0.004,-0.023,103.0,110.0,101.0,13.4,1505.3,326.6,-0.8,1.8,2470.399,13.31,0.043,84.7
2020-04-24T05:22:03,42.805,6.029,0.02,-0.007,-0.041,102.0,111.0,102.0,13.4,1505.3,324.7,-0.7,1.8,2470.399,13.32,0.021,109.3
2020-04-24T05:25:03,42.805,6.029,-0.021,-0.006,-0.048,102.0,110.0,100.0,13.4,1505.3,324.4,-0.7,1.8,2470.381,13.32,0.021,254.1
2020-04-24T05:28:03,42.805,6.029,0.031,0.009,-0.018,103.0,110.0,102.0,13.4,1505.3,324.8,-0.7,1.8,2470.375,13.32,0.032,73.8
2020-04-24T05:31:03,42.805,6.029,0.023,-0.012,-0.05,103.0,111.0,101.0,13.3,1505.3,325.4,-0.7,1.9,2470.382,13.33,0.025,117.6
2020-04-24T05:34:03,42.805,6.029,-0.03,0.02,-0.028,102.0,109.0,101.0,13.4,1505.3,326.6,-0.7,1.9,2470.381,13.33,0.036,303.7
2020-04-24T05:37:03,42.805,6.029,-0.001,0.028,0.0,102.0,110.0,101.0,13.3,1505.3,324.2,-0.7,1.8,2470.393,13.33,0.028,358.0
2020-04-24T05:40:03,42.805,6.029,-0.008,0.016,-0.04,103.0,109.0,101.0,13.4,1505.3,325.9,-0.7,1.8,2470.393,13.33,0.017,333.4
2020-04-24T05:43:03,42.805,6.029,-0.01,0.01,-0.04,103.0,108.0,101.0,13.3,1505.3,326.5,-0.7,1.8,2470.41,13.33,0.014,315.0
2020-04-24T05:46:03,42.805,6.029,0.0,0.008,-0.023,102.0,109.0,101.0,13.3,1505.3,323.2,-0.7,1.8,2470.398,13.33,0.008,0.0
2020-04-24T05:49:03,42.805,6.029,0.002,-0.014,-0.074,101.0,109.0,101.0,13.4,1505.3,325.4,-0.7,1.8,2470.386,13.33,0.014,171.9
2020-04-24T05:52:03,42.805,6.029,0.009,0.022,-0.029,103.0,108.0,101.0,13.4,1505.3,324.3,-0.7,1.9,2470.38,13.33,0.023,22.2
2020-04-24T05:55:03,42.805,6.029,-0.012,0.003,-0.064,102.0,108.0,100.0,13.4,1505.3,326.8,-0.7,1.8,2470.374,13.33,0.012,284.0
2020-04-24T05:58:03,42.805,6.029,0.006,0.019,-0.015,103.0,109.0,101.0,13.3,1505.3,325.0,-0.8,1.9,2470.396,13.33,0.019,17.5
2020-04-24T06:04:03,42.805,6.029,0.035,0.006,-0.024,101.0,109.0,101.0,13.4,1505.3,323.4,-0.7,1.8,2470.437,13.31,0.035,80.3
2020-04-24T06:07:03,42.805,6.029,-0.006,0.011,-0.044,103.0,109.0,101.0,13.4,1505.3,326.9,-0.7,1.9,2470.406,13.31,0.012,331.4
2020-04-24T06:10:03,42.805,6.029,0.003,0.006,-0.008,102.0,107.0,101.0,13.3,1505.3,326.0,-0.7,1.8,2470.385,13.32,0.006,26.6
2020-04-24T06:13:03,42.805,6.029,0.027,0.012,-0.005,103.0,108.0,99.0,13.3,1505.3,325.4,-0.7,1.8,2470.446,13.32,0.029,66.0
2020-04-24T06:16:03,42.805,6.029,0.012,0.01,-0.026,103.0,109.0,101.0,13.4,1505.3,326.1,-0.7,1.8,2470.446,13.32,0.015,50.2
2020-04-24T06:19:03,42.805,6.029,0.015,0.002,-0.035,104.0,108.0,101.0,13.4,1505.3,328.4,-0.7,1.8,2470.433,13.33,0.015,82.4
2020-04-24T06:22:03,42.805,6.029,0.028,0.009,0.0,103.0,108.0,101.0,13.4,1505.3,322.8,-0.7,1.8,2470.423,13.33,0.029,72.2
2020-04-24T06:25:03,42.805,6.029,0.005,0.016,-0.045,101.0,110.0,101.0,13.3,1505.3,324.1,-0.7,1.8,2470.438,13.33,0.016,17.4
2020-04-24T06:28:03,42.805,6.029,-0.002,0.005,-0.024,104.0,108.0,101.0,13.4,1505.3,325.6,-0.7,1.9,2470.409,13.33,0.005,338.2
2020-04-24T06:31:03,42.805,6.029,0.01,-0.012,0.008,103.0,109.0,100.0,13.4,1505.3,325.3,-0.7,1.8,2470.394,13.33,0.015,140.2
2020-04-24T06:34:03,42.805,6.029,0.004,0.008,0.007,103.0,108.0,101.0,13.3,1505.3,328.0,-0.7,1.8,2470.412,13.33,0.008,26.6
2020-04-24T06:37:03,42.805,6.029,-0.018,-0.006,-0.033,102.0,110.0,102.0,13.4,1505.3,323.5,-0.7,1.8,2470.433,13.33,0.018,251.6
2020-04-24T06:40:03,42.805,6.029,-0.004,0.012,-0.02,103.0,110.0,101.0,13.4,1505.3,322.9,-0.7,1.8,2470.404,13.33,0.012,341.6
2020-04-24T06:43:03,42.805,6.029,0.001,0.013,0.004,104.0,111.0,100.0,13.4,1505.3,326.1,-0.7,1.8,2470.428,13.33,0.013,4.4
2020-04-24T06:46:03,42.805,6.029,-0.046,-0.004,-0.077,103.0,110.0,101.0,13.4,1505.3,325.9,-0.7,1.9,2470.408,13.33,0.046,265.0
2020-04-24T06:49:03,42.805,6.029,0.005,0.007,-0.024,102.0,111.0,101.0,13.4,1505.3,323.3,-0.7,1.8,2470.448,13.33,0.008,35.5
2020-04-24T06:52:03,42.805,6.029,0.017,0.003,-0.062,102.0,111.0,100.0,13.4,1505.3,326.0,-0.7,1.8,2470.406,13.33,0.017,80.0
2020-04-24T06:55:03,42.805,6.029,-0.011,-0.007,-0.038,102.0,110.0,100.0,13.4,1505.3,325.4,-0.7,1.8,2470.475,13.33,0.013,237.5
2020-04-24T06:58:03,42.805,6.029,0.0,-0.001,-0.015,101.0,109.0,102.0,13.4,1505.3,326.8,-0.7,1.8,2470.434,13.33,0.001,180.0
2020-04-24T07:04:03,42.805,6.029,0.007,0.007,-0.049,103.0,111.0,101.0,13.3,1505.3,325.9,-0.7,1.8,2470.468,13.31,0.009,45.0
2020-04-24T07:07:03,42.805,6.029,0.0,0.035,-0.051,103.0,110.0,101.0,13.4,1505.3,324.6,-0.7,1.8,2470.472,13.32,0.035,0.0
2020-04-24T07:10:03,42.805,6.029,0.016,0.006,-0.034,103.0,109.0,104.0,13.4,1505.3,322.5,-0.7,1.8,2470.431,13.32,0.017,69.4
2020-04-24T07:13:03,42.805,6.029,0.026,-0.001,0.006,102.0,109.0,102.0,13.4,1505.3,323.7,-0.6,1.9,2470.481,13.32,0.026,92.2
2020-04-24T07:16:03,42.805,6.029,0.007,0.005,-0.041,104.0,110.0,101.0,13.3,1505.3,324.9,-0.7,1.8,2470.438,13.32,0.008,54.5
2020-04-24T07:19:03,42.805,6.029,0.004,0.009,-0.037,102.0,110.0,101.0,13.4,1505.3,327.6,-0.7,1.8,2470.461,13.33,0.009,24.0
2020-04-24T07:22:03,42.805,6.029,0.013,-0.007,-0.051,103.0,110.0,100.0,13.4,1505.3,325.5,-0.7,1.9,2470.448,13.33,0.014,118.3
2020-04-24T07:25:03,42.805,6.029,0.016,0.005,-0.007,102.0,110.0,101.0,13.4,1505.3,326.8,-0.7,1.8,2470.439,13.33,0.016,72.6
2020-04-24T07:28:03,42.805,6.029,-0.003,0.021,-0.007,104.0,111.0,101.0,13.4,1505.3,323.8,-0.7,1.8,2470.447,13.33,0.021,351.9
2020-04-24T07:31:03,42.805,6.029,0.026,0.004,-0.003,102.0,111.0,100.0,13.4,1505.3,327.7,-0.7,1.8,2470.463,13.33,0.026,81.3
2020-04-24T07:34:03,42.805,6.029,0.012,0.018,-0.008,102.0,111.0,101.0,13.4,1505.3,324.4,-0.7,1.8,2470.428,13.33,0.021,33.7
2020-04-24T07:37:03,42.805,6.029,0.028,0.027,-0.003,103.0,111.0,100.0,13.4,1505.3,323.6,-0.7,1.8,2470.414,13.33,0.038,46.0
2020-04-24T07:40:03,42.805,6.029,0.017,0.01,-0.028,101.0,110.0,101.0,13.4,1505.3,327.3,-0.7,1.8,2470.438,13.33,0.019,59.5
2020-04-24T07:43:03,42.805,6.029,-0.024,0.013,-0.055,102.0,109.0,101.0,13.3,1505.3,324.6,-0.7,1.8,2470.432,13.33,0.027,298.4
2020-04-24T07:46:03,42.805,6.029,0.017,0.015,0.005,104.0,111.0,100.0,13.4,1505.3,325.5,-0.7,1.8,2470.434,13.33,0.022,48.6
2020-04-24T07:49:03,42.805,6.029,0.007,0.007,0.001,102.0,111.0,100.0,13.4,1505.3,325.2,-0.7,1.8,2470.428,13.33,0.009,45.0
2020-04-24T07:52:03,42.805,6.029,0.006,0.009,-0.039,102.0,109.0,102.0,13.4,1505.3,324.7,-0.7,1.8,2470.41,13.33,0.01,33.7
2020-04-24T07:55:03,42.805,6.029,0.014,0.021,-0.005,104.0,112.0,100.0,13.3,1505.3,326.9,-0.7,1.8,2470.447,13.33,0.025,33.7
2020-04-24T07:58:03,42.805,6.029,-0.013,0.016,-0.04,104.0,110.0,101.0,13.4,1505.3,326.9,-0.7,1.9,2470.412,13.33,0.02,320.9
2020-04-24T08:04:03,42.805,6.029,0.02,0.02,-0.04,104.0,111.0,100.0,13.3,1505.3,324.8,-0.7,1.8,2470.481,13.31,0.028,45.0
2020-04-24T08:07:03,42.805,6.029,-0.009,0.026,-0.071,103.0,112.0,101.0,13.4,1505.3,325.5,-0.7,1.9,2470.447,13.31,0.027,340.9
2020-04-24T08:10:03,42.805,6.029,0.004,0.014,-0.047,103.0,110.0,101.0,13.4,1505.3,327.4,-0.7,1.8,2470.455,13.32,0.014,15.9
2020-04-24T08:13:03,42.805,6.029,-0.009,0.013,-0.008,103.0,111.0,101.0,13.4,1505.3,326.4,-0.7,1.8,2470.45,13.32,0.015,325.3
2020-04-24T08:16:03,42.805,6.029,-0.014,0.006,-0.047,104.0,110.0,101.0,13.4,1505.3,326.0,-0.7,1.8,2470.416,13.32,0.015,293.2
2020-04-24T08:19:03,42.805,6.029,-0.018,0.009,-0.007,103.0,111.0,101.0,13.4,1505.3,327.7,-0.7,1.9,2470.427,13.32,0.02,296.6
2020-04-24T08:22:03,42.805,6.029,-0.001,0.008,-0.031,104.0,110.0,100.0,13.3,1505.3,324.4,-0.7,1.8,2470.422,13.32,0.008,352.9
2020-04-24T08:25:03,42.805,6.029,0.017,0.005,-0.005,103.0,111.0,99.0,13.4,1505.3,327.0,-0.7,1.8,2470.416,13.32,0.017,73.6
2020-04-24T08:28:03,42.805,6.029,0.022,0.019,-0.009,103.0,111.0,100.0,13.3,1505.3,324.1,-0.7,1.9,2470.401,13.33,0.029,49.2
2020-04-24T08:31:03,42.805,6.029,0.018,0.01,-0.022,103.0,110.0,100.0,13.3,1505.3,327.3,-0.7,1.8,2470.408,13.33,0.02,60.9
2020-04-24T08:34:03,42.805,6.029,0.011,0.008,-0.037,103.0,111.0,100.0,13.4,1505.3,328.1,-0.7,1.9,2470.419,13.32,0.013,54.0
2020-04-24T08:37:03,42.805,6.029,0.009,0.0,-0.017,102.0,110.0,101.0,13.3,1505.3,327.2,-0.7,1.8,2470.425,13.33,0.009,90.0
2020-04-24T08:40:03,42.805,6.029,0.01,0.016,-0.03,103.0,111.0,102.0,13.4,1505.3,327.3,-0.7,1.8,2470.437,13.33,0.018,32.0
2020-04-24T08:43:03,42.805,6.029,0.0,0.021,-0.022,102.0,111.0,101.0,13.3,1505.3,325.4,-0.7,1.9,2470.458,13.33,0.021,0.0
2020-04-24T08:46:03,42.805,6.029,0.026,0.034,-0.012,103.0,111.0,101.0,13.4,1505.3,324.3,-0.7,1.8,2470.397,13.33,0.042,37.4
2020-04-24T08:49:03,42.805,6.029,0.007,0.024,-0.034,102.0,112.0,100.0,13.3,1505.3,327.3,-0.7,1.8,2470.438,13.32,0.025,16.3
2020-04-24T08:52:03,42.805,6.029,0.016,0.009,-0.016,102.0,112.0,100.0,13.4,1505.3,326.0,-0.7,1.9,2470.402,13.32,0.018,60.6
2020-04-24T08:55:03,42.805,6.029,0.017,0.004,-0.044,102.0,112.0,102.0,13.4,1505.3,327.6,-0.7,1.9,2470.396,13.32,0.017,76.8
2020-04-24T08:58:03,42.805,6.029,-0.008,0.006,-0.05,104.0,111.0,99.0,13.4,1505.3,324.8,-0.7,1.9,2470.438,13.32,0.01,306.9
2020-04-24T09:04:03,42.805,6.029,0.019,0.022,-0.031,102.0,110.0,101.0,13.3,1505.2,324.1,-0.8,1.8,2470.412,13.3,0.029,40.8
2020-04-24T09:07:03,42.805,6.029,0.002,0.009,-0.055,102.0,111.0,100.0,13.3,1505.3,327.7,-0.8,1.8,2470.465,13.31,0.009,12.5
2020-04-24T09:10:03,42.805,6.029,0.05,0.02,0.01,103.0,111.0,100.0,13.3,1505.3,327.3,-0.7,1.8,2470.435,13.32,0.053,68.2
2020-04-24T09:13:03,42.805,6.029,-0.002,0.008,-0.021,102.0,113.0,100.0,13.4,1505.3,328.6,-0.7,1.8,2470.443,13.32,0.008,346.0
2020-04-24T09:16:03,42.805,6.029,0.018,0.026,-0.013,101.0,112.0,102.0,13.4,1505.3,325.1,-0.7,1.8,2470.454,13.32,0.031,34.7
2020-04-24T09:19:03,42.805,6.029,0.005,0.011,-0.043,104.0,112.0,99.0,13.4,1505.3,324.6,-0.7,1.8,2470.414,13.32,0.012,24.4
2020-04-24T09:22:03,42.805,6.029,-0.005,-0.003,-0.024,102.0,113.0,101.0,13.3,1505.3,323.2,-0.7,1.8,2470.442,13.32,0.005,239.0
2020-04-24T09:25:03,42.805,6.029,0.025,0.039,0.024,102.0,112.0,100.0,13.4,1505.3,326.5,-0.7,1.8,2470.389,13.32,0.046,32.7
2020-04-24T09:28:03,42.805,6.029,0.001,0.029,-0.022,102.0,112.0,101.0,13.4,1505.3,324.3,-0.7,1.9,2470.396,13.32,0.029,2.0
2020-04-24T09:31:03,42.805,6.029,0.027,0.03,0.001,104.0,111.0,102.0,13.4,1505.3,322.9,-0.7,1.8,2470.396,13.32,0.04,42.0
2020-04-24T09:34:03,42.805,6.029,0.004,0.021,-0.011,103.0,112.0,101.0,13.4,1505.3,326.6,-0.7,1.8,2470.404,13.32,0.021,10.8
2020-04-24T09:37:03,42.805,6.029,0.004,0.014,-0.037,103.0,116.0,100.0,13.4,1505.3,326.8,-0.7,1.8,2470.405,13.32,0.014,15.9
2020-04-24T09:40:03,42.805,6.029,-0.005,0.016,-0.021,103.0,112.0,101.0,13.4,1505.3,324.1,-0.7,1.8,2470.435,13.32,0.016,342.6
2020-04-24T09:43:03,42.805,6.029,-0.004,0.023,-0.003,103.0,112.0,100.0,13.3,1505.3,324.2,-0.7,1.8,2470.407,13.33,0.023,350.1
2020-04-24T09:46:03,42.805,6.029,0.027,0.0,-0.031,103.0,113.0,101.0,13.4,1505.3,326.2,-0.7,1.8,2470.374,13.33,0.026,90.0
2020-04-24T09:49:03,42.805,6.029,0.04,0.027,-0.022,103.0,113.0,101.0,13.4,1505.3,326.4,-0.7,1.8,2470.398,13.32,0.048,56.0
2020-04-24T09:52:03,42.805,6.029,0.004,0.018,-0.031,103.0,112.0,101.0,13.4,1505.3,324.2,-0.7,1.8,2470.398,13.32,0.018,12.5
2020-04-24T09:55:03,42.805,6.029,0.015,0.013,-0.021,102.0,112.0,102.0,13.3,1505.3,324.6,-0.7,1.8,2470.396,13.32,0.019,49.1
2020-04-24T09:58:03,42.805,6.029,0.022,0.04,-0.009,102.0,114.0,100.0,13.3,1505.3,326.8,-0.7,1.8,2470.416,13.33,0.045,28.8
2020-04-24T10:04:03,42.805,6.029,0.008,0.043,-0.014,104.0,113.0,100.0,13.3,1505.3,327.2,-0.7,1.8,2470.404,13.31,0.043,10.5
2020-04-24T10:07:03,42.805,6.029,0.005,0.025,-0.029,103.0,113.0,101.0,13.4,1505.3,324.9,-0.7,1.9,2470.398,13.31,0.025,11.3
2020-04-24T10:10:03,42.805,6.029,-0.013,0.015,-0.062,103.0,113.0,101.0,13.4,1505.3,325.2,-0.7,1.8,2470.39,13.32,0.019,319.1